contact: severine.martini@mio.osupytheas.fr, dominique.lefevre@mio.osupytheas.fr
Project:EMSO Ligure-ouest http://www.emso-fr.org/EMSO-France
Sensor Microcat Sea-Bird SBE37 SMP,  Serial 57510 
DOI : "https://doi.org/10.17882/97948" 
Title:EMSO Ligure Ouest : Data Bathybot capteur Microcat - deploiement 2023-04-28
Datetime,Profondeur,Latitude,Longitude,Temperature,Conductivite,Pression,Salinite
time,m,degree_north,degree_east,degree_C,S/m,db,PSU 
2023-10-02T00:00:49,2420,42.8014,5.9826,13.2977,4.59906,2453.664,38.4869
2023-10-02T00:03:49,2420,42.8014,5.9826,13.2973,4.59903,2453.649,38.4870
2023-10-02T00:06:49,2420,42.8014,5.9826,13.2973,4.59907,2453.627,38.4874
2023-10-02T00:09:49,2420,42.8014,5.9826,13.2977,4.59907,2453.604,38.4870
2023-10-02T00:12:49,2420,42.8014,5.9826,13.2970,4.59906,2453.649,38.4876
2023-10-02T00:15:49,2420,42.8014,5.9826,13.2975,4.59908,2453.627,38.4872
2023-10-02T00:18:49,2420,42.8014,5.9826,13.2975,4.59903,2453.612,38.4869
2023-10-02T00:21:49,2420,42.8014,5.9826,13.2971,4.59903,2453.627,38.4871
2023-10-02T00:24:49,2420,42.8014,5.9826,13.2973,4.59907,2453.627,38.4874
2023-10-02T00:27:49,2420,42.8014,5.9826,13.2973,4.59904,2453.649,38.4871
2023-10-02T00:30:49,2420,42.8014,5.9826,13.2969,4.59903,2453.627,38.4874
2023-10-02T00:33:49,2420,42.8014,5.9826,13.2973,4.59903,2453.627,38.4869
2023-10-02T00:36:49,2420,42.8014,5.9826,13.2966,4.59901,2453.627,38.4875
2023-10-02T00:39:49,2420,42.8014,5.9826,13.2970,4.59904,2453.664,38.4874
2023-10-02T00:42:49,2420,42.8014,5.9826,13.2974,4.59904,2453.627,38.4870
2023-10-02T00:45:49,2420,42.8014,5.9826,13.2973,4.59904,2453.627,38.4871
2023-10-02T00:48:49,2420,42.8014,5.9826,13.2972,4.59905,2453.604,38.4873
2023-10-02T00:51:49,2420,42.8014,5.9826,13.2979,4.59904,2453.604,38.4865
2023-10-02T00:54:49,2420,42.8014,5.9826,13.2972,4.59906,2453.635,38.4874
2023-10-02T00:57:49,2420,42.8014,5.9826,13.2975,4.59905,2453.627,38.4870
2023-10-02T01:00:49,2420,42.8014,5.9826,13.2972,4.59903,2453.604,38.4872
2023-10-02T01:03:49,2420,42.8014,5.9826,13.2972,4.59902,2453.582,38.4870
2023-10-02T01:06:49,2420,42.8014,5.9826,13.2971,4.59905,2453.627,38.4874
2023-10-02T01:09:49,2420,42.8014,5.9826,13.2973,4.59904,2453.559,38.4871
2023-10-02T01:12:49,2420,42.8014,5.9826,13.2975,4.59906,2453.604,38.4871
2023-10-02T01:15:49,2420,42.8014,5.9826,13.2972,4.59907,2453.582,38.4875
2023-10-02T01:18:49,2420,42.8014,5.9826,13.2970,4.59909,2453.582,38.4879
2023-10-02T01:21:49,2420,42.8014,5.9826,13.2974,4.59908,2453.582,38.4874
2023-10-02T01:24:49,2420,42.8014,5.9826,13.2974,4.59907,2453.604,38.4873
2023-10-02T01:27:49,2420,42.8014,5.9826,13.2971,4.59908,2453.567,38.4877
2023-10-02T01:30:49,2420,42.8014,5.9826,13.2977,4.59905,2453.582,38.4868
2023-10-02T01:33:49,2420,42.8014,5.9826,13.2973,4.59903,2453.582,38.4870
2023-10-02T01:36:49,2420,42.8014,5.9826,13.2975,4.59906,2453.544,38.4871
2023-10-02T01:39:49,2420,42.8014,5.9826,13.2969,4.59905,2453.582,38.4876
2023-10-02T01:42:49,2420,42.8014,5.9826,13.2973,4.59906,2453.604,38.4873
2023-10-02T01:45:49,2420,42.8014,5.9826,13.2970,4.59902,2453.559,38.4872
2023-10-02T01:48:49,2420,42.8014,5.9826,13.2973,4.59903,2453.559,38.4871
2023-10-02T01:51:49,2420,42.8014,5.9826,13.2968,4.59908,2453.604,38.4879
2023-10-02T01:54:49,2420,42.8014,5.9826,13.2976,4.59908,2453.559,38.4872
2023-10-02T01:57:49,2420,42.8014,5.9826,13.2975,4.59911,2453.619,38.4875
2023-10-02T02:00:49,2420,42.8014,5.9826,13.2970,4.59903,2453.537,38.4874
2023-10-02T02:03:49,2420,42.8014,5.9826,13.2972,4.59903,2453.582,38.4871
2023-10-02T02:06:49,2420,42.8014,5.9826,13.2973,4.59902,2453.544,38.4870
2023-10-02T02:09:49,2420,42.8014,5.9826,13.2970,4.59908,2453.559,38.4877
2023-10-02T02:12:49,2420,42.8014,5.9826,13.2978,4.59905,2453.567,38.4867
2023-10-02T02:15:49,2420,42.8014,5.9826,13.2972,4.59903,2453.582,38.4871
2023-10-02T02:18:49,2420,42.8014,5.9826,13.2975,4.59906,2453.559,38.4871
2023-10-02T02:21:49,2420,42.8014,5.9826,13.2973,4.59903,2453.544,38.4870
2023-10-02T02:24:49,2420,42.8014,5.9826,13.2975,4.59906,2453.582,38.4871
2023-10-02T02:27:49,2420,42.8014,5.9826,13.2972,4.59903,2453.559,38.4871
2023-10-02T02:30:49,2420,42.8014,5.9826,13.2974,4.59903,2453.582,38.4869
2023-10-02T02:33:49,2420,42.8014,5.9826,13.2974,4.59903,2453.522,38.4870
2023-10-02T02:36:49,2420,42.8014,5.9826,13.2971,4.59903,2453.559,38.4872
2023-10-02T02:39:49,2420,42.8014,5.9826,13.2971,4.59903,2453.537,38.4873
2023-10-02T02:42:49,2420,42.8014,5.9826,13.2969,4.59908,2453.544,38.4879
2023-10-02T02:45:49,2420,42.8014,5.9826,13.2973,4.59910,2453.559,38.4877
2023-10-02T02:48:49,2420,42.8014,5.9826,13.2972,4.59908,2453.559,38.4877
2023-10-02T02:51:49,2420,42.8014,5.9826,13.2968,4.59908,2453.559,38.4880
2023-10-02T02:54:49,2420,42.8014,5.9826,13.2970,4.59911,2453.537,38.4881
2023-10-02T02:57:49,2420,42.8014,5.9826,13.2973,4.59909,2453.537,38.4876
2023-10-02T03:00:49,2420,42.8014,5.9826,13.2973,4.59906,2453.537,38.4874
2023-10-02T03:03:49,2420,42.8014,5.9826,13.2974,4.59909,2453.544,38.4875
2023-10-02T03:06:49,2420,42.8014,5.9826,13.2973,4.59911,2453.537,38.4878
2023-10-02T03:09:49,2420,42.8014,5.9826,13.2971,4.59907,2453.522,38.4876
2023-10-02T03:12:49,2420,42.8014,5.9826,13.2973,4.59908,2453.537,38.4875
2023-10-02T03:15:49,2420,42.8014,5.9826,13.2973,4.59915,2453.559,38.4882
2023-10-02T03:18:49,2420,42.8014,5.9826,13.2973,4.59913,2453.559,38.4880
2023-10-02T03:21:49,2420,42.8014,5.9826,13.2978,4.59911,2453.537,38.4873
2023-10-02T03:24:49,2420,42.8014,5.9826,13.2970,4.59911,2453.544,38.4882
2023-10-02T03:27:49,2420,42.8014,5.9826,13.2971,4.59909,2453.544,38.4878
2023-10-02T03:30:49,2420,42.8014,5.9826,13.2975,4.59915,2453.514,38.4880
2023-10-02T03:33:49,2420,42.8014,5.9826,13.2975,4.59911,2453.537,38.4876
2023-10-02T03:36:49,2420,42.8014,5.9826,13.2972,4.59910,2453.559,38.4878
2023-10-02T03:39:49,2420,42.8014,5.9826,13.2973,4.59909,2453.559,38.4876
2023-10-02T03:42:49,2420,42.8014,5.9826,13.2975,4.59916,2453.559,38.4881
2023-10-02T03:45:49,2420,42.8014,5.9826,13.2976,4.59910,2453.537,38.4874
2023-10-02T03:48:49,2420,42.8014,5.9826,13.2979,4.59908,2453.559,38.4870
2023-10-02T03:51:49,2420,42.8014,5.9826,13.2972,4.59908,2453.537,38.4876
2023-10-02T03:54:49,2420,42.8014,5.9826,13.2975,4.59908,2453.537,38.4874
2023-10-02T03:57:49,2420,42.8014,5.9826,13.2974,4.59909,2453.537,38.4875
2023-10-02T04:00:49,2420,42.8014,5.9826,13.2974,4.59910,2453.559,38.4876
2023-10-02T04:03:49,2420,42.8014,5.9826,13.2974,4.59907,2453.559,38.4873
2023-10-02T04:06:49,2420,42.8014,5.9826,13.2971,4.59906,2453.537,38.4875
2023-10-02T04:09:49,2420,42.8014,5.9826,13.2972,4.59907,2453.537,38.4875
2023-10-02T04:12:49,2420,42.8014,5.9826,13.2973,4.59907,2453.559,38.4874
2023-10-02T04:15:49,2420,42.8014,5.9826,13.2971,4.59907,2453.559,38.4876
2023-10-02T04:18:49,2420,42.8014,5.9826,13.2972,4.59908,2453.574,38.4876
2023-10-02T04:21:49,2420,42.8014,5.9826,13.2972,4.59906,2453.559,38.4875
2023-10-02T04:24:49,2420,42.8014,5.9826,13.2976,4.59908,2453.567,38.4872
2023-10-02T04:27:49,2420,42.8014,5.9826,13.2970,4.59911,2453.559,38.4881
2023-10-02T04:30:49,2420,42.8014,5.9826,13.2973,4.59908,2453.582,38.4876
2023-10-02T04:33:49,2420,42.8014,5.9826,13.2973,4.59908,2453.567,38.4875
2023-10-02T04:36:49,2420,42.8014,5.9826,13.2972,4.59908,2453.544,38.4877
2023-10-02T04:39:49,2420,42.8014,5.9826,13.2970,4.59910,2453.582,38.4879
2023-10-02T04:42:49,2420,42.8014,5.9826,13.2973,4.59906,2453.559,38.4873
2023-10-02T04:45:49,2420,42.8014,5.9826,13.2970,4.59910,2453.567,38.4879
2023-10-02T04:48:49,2420,42.8014,5.9826,13.2974,4.59911,2453.604,38.4877
2023-10-02T04:51:49,2420,42.8014,5.9826,13.2975,4.59908,2453.559,38.4873
2023-10-02T04:54:49,2420,42.8014,5.9826,13.2973,4.59906,2453.574,38.4873
2023-10-02T04:57:49,2420,42.8014,5.9826,13.2974,4.59907,2453.582,38.4873
2023-10-02T05:00:49,2420,42.8014,5.9826,13.2971,4.59906,2453.559,38.4875
2023-10-02T05:03:49,2420,42.8014,5.9826,13.2971,4.59906,2453.604,38.4875
2023-10-02T05:06:49,2420,42.8014,5.9826,13.2972,4.59909,2453.604,38.4877
2023-10-02T05:09:49,2420,42.8014,5.9826,13.2968,4.59906,2453.604,38.4878
2023-10-02T05:12:49,2420,42.8014,5.9826,13.2973,4.59909,2453.649,38.4876
2023-10-02T05:15:49,2420,42.8014,5.9826,13.2976,4.59908,2453.604,38.4872
2023-10-02T05:18:49,2420,42.8014,5.9826,13.2973,4.59909,2453.635,38.4876
2023-10-02T05:21:49,2420,42.8014,5.9826,13.2973,4.59907,2453.604,38.4874
2023-10-02T05:24:49,2420,42.8014,5.9826,13.2973,4.59908,2453.604,38.4876
2023-10-02T05:27:49,2420,42.8014,5.9826,13.2975,4.59906,2453.604,38.4872
2023-10-02T05:30:49,2420,42.8014,5.9826,13.2973,4.59906,2453.627,38.4873
2023-10-02T05:33:49,2420,42.8014,5.9826,13.2973,4.59907,2453.649,38.4874
2023-10-02T05:36:49,2420,42.8014,5.9826,13.2970,4.59907,2453.641,38.4877
2023-10-02T05:39:49,2420,42.8014,5.9826,13.2973,4.59909,2453.672,38.4875
2023-10-02T05:42:49,2420,42.8014,5.9826,13.2973,4.59909,2453.641,38.4876
2023-10-02T05:45:49,2420,42.8014,5.9826,13.2968,4.59907,2453.649,38.4879
2023-10-02T05:48:49,2420,42.8014,5.9826,13.2973,4.59909,2453.627,38.4876
2023-10-02T05:51:49,2420,42.8014,5.9826,13.2975,4.59909,2453.672,38.4874
2023-10-02T05:54:49,2420,42.8014,5.9826,13.2970,4.59911,2453.649,38.4881
2023-10-02T05:57:49,2420,42.8014,5.9826,13.2973,4.59907,2453.672,38.4873
2023-10-02T06:00:49,2420,42.8014,5.9826,13.2968,4.59911,2453.672,38.4882
2023-10-02T06:03:49,2420,42.8014,5.9826,13.2973,4.59911,2453.672,38.4878
2023-10-02T06:06:49,2420,42.8014,5.9826,13.2973,4.59910,2453.672,38.4876
2023-10-02T06:09:49,2420,42.8014,5.9826,13.2971,4.59907,2453.649,38.4876
2023-10-02T06:12:49,2420,42.8014,5.9826,13.2972,4.59909,2453.657,38.4877
2023-10-02T06:15:49,2420,42.8014,5.9826,13.2972,4.59909,2453.635,38.4876
2023-10-02T06:18:49,2420,42.8014,5.9826,13.2975,4.59907,2453.649,38.4872
2023-10-02T06:21:49,2420,42.8014,5.9826,13.2972,4.59906,2453.695,38.4874
2023-10-02T06:24:49,2420,42.8014,5.9826,13.2972,4.59907,2453.695,38.4875
2023-10-02T06:27:49,2420,42.8014,5.9826,13.2973,4.59907,2453.695,38.4874
2023-10-02T06:30:49,2420,42.8014,5.9826,13.2972,4.59909,2453.717,38.4876
2023-10-02T06:33:49,2420,42.8014,5.9826,13.2972,4.59908,2453.695,38.4876
2023-10-02T06:36:49,2420,42.8014,5.9826,13.2975,4.59908,2453.695,38.4873
2023-10-02T06:39:49,2420,42.8014,5.9826,13.2973,4.59909,2453.717,38.4875
2023-10-02T06:42:49,2420,42.8014,5.9826,13.2978,4.59913,2453.702,38.4875
2023-10-02T06:45:49,2420,42.8014,5.9826,13.2975,4.59915,2453.695,38.4880
2023-10-02T06:48:49,2420,42.8014,5.9826,13.2974,4.59909,2453.717,38.4875
2023-10-02T06:51:49,2420,42.8014,5.9826,13.2974,4.59910,2453.695,38.4875
2023-10-02T06:54:49,2420,42.8014,5.9826,13.2974,4.59908,2453.717,38.4873
2023-10-02T06:57:49,2420,42.8014,5.9826,13.2973,4.59909,2453.762,38.4875
2023-10-02T07:00:49,2420,42.8014,5.9826,13.2970,4.59911,2453.740,38.4880
2023-10-02T07:03:49,2420,42.8014,5.9826,13.2968,4.59907,2453.740,38.4878
2023-10-02T07:06:49,2420,42.8014,5.9826,13.2972,4.59908,2453.717,38.4875
2023-10-02T07:09:49,2420,42.8014,5.9826,13.2975,4.59908,2453.740,38.4872
2023-10-02T07:12:49,2420,42.8014,5.9826,13.2974,4.59909,2453.740,38.4874
2023-10-02T07:15:49,2420,42.8014,5.9826,13.2972,4.59909,2453.740,38.4876
2023-10-02T07:18:49,2420,42.8014,5.9826,13.2973,4.59914,2453.762,38.4879
2023-10-02T07:21:49,2420,42.8014,5.9826,13.2975,4.59909,2453.740,38.4873
2023-10-02T07:24:49,2420,42.8014,5.9826,13.2973,4.59910,2453.762,38.4876
2023-10-02T07:27:49,2420,42.8014,5.9826,13.2974,4.59908,2453.762,38.4873
2023-10-02T07:30:49,2420,42.8014,5.9826,13.2975,4.59909,2453.762,38.4873
2023-10-02T07:33:49,2420,42.8014,5.9826,13.2975,4.59912,2453.800,38.4877
2023-10-02T07:36:49,2420,42.8014,5.9826,13.2974,4.59909,2453.748,38.4874
2023-10-02T07:39:49,2420,42.8014,5.9826,13.2970,4.59908,2453.777,38.4877
2023-10-02T07:42:49,2420,42.8014,5.9826,13.2973,4.59912,2453.762,38.4878
2023-10-02T07:45:49,2420,42.8014,5.9826,13.2973,4.59911,2453.762,38.4877
2023-10-02T07:48:49,2420,42.8014,5.9826,13.2972,4.59914,2453.762,38.4881
2023-10-02T07:51:49,2420,42.8014,5.9826,13.2972,4.59915,2453.785,38.4882
2023-10-02T07:54:49,2420,42.8014,5.9826,13.2977,4.59910,2453.785,38.4872
2023-10-02T07:57:49,2420,42.8014,5.9826,13.2975,4.59911,2453.762,38.4875
2023-10-02T08:00:49,2420,42.8014,5.9826,13.2969,4.59910,2453.762,38.4880
2023-10-02T08:03:49,2420,42.8014,5.9826,13.2971,4.59912,2453.785,38.4880
2023-10-02T08:06:49,2420,42.8014,5.9826,13.2975,4.59914,2453.762,38.4878
2023-10-02T08:09:49,2420,42.8014,5.9826,13.2977,4.59914,2453.762,38.4876
2023-10-02T08:12:49,2420,42.8014,5.9826,13.2975,4.59910,2453.762,38.4875
2023-10-02T08:15:49,2420,42.8014,5.9826,13.2972,4.59910,2453.762,38.4877
2023-10-02T08:18:49,2420,42.8014,5.9826,13.2973,4.59909,2453.785,38.4874
2023-10-02T08:21:49,2420,42.8014,5.9826,13.2975,4.59910,2453.807,38.4874
2023-10-02T08:24:49,2420,42.8014,5.9826,13.2975,4.59913,2453.807,38.4877
2023-10-02T08:27:49,2420,42.8014,5.9826,13.2976,4.59911,2453.785,38.4874
2023-10-02T08:30:49,2420,42.8014,5.9826,13.2977,4.59915,2453.800,38.4877
2023-10-02T08:33:49,2420,42.8014,5.9826,13.2974,4.59909,2453.785,38.4874
2023-10-02T08:36:49,2420,42.8014,5.9826,13.2974,4.59911,2453.807,38.4876
2023-10-02T08:39:49,2420,42.8014,5.9826,13.2973,4.59911,2453.762,38.4877
2023-10-02T08:42:49,2420,42.8014,5.9826,13.2972,4.59914,2453.785,38.4881
2023-10-02T08:45:49,2420,42.8014,5.9826,13.2975,4.59913,2453.785,38.4877
2023-10-02T08:48:49,2420,42.8014,5.9826,13.2974,4.59908,2453.785,38.4873
2023-10-02T08:51:49,2420,42.8014,5.9826,13.2975,4.59909,2453.785,38.4874
2023-10-02T09:00:49,2420,42.8014,5.9826,13.2971,4.59911,2453.785,38.4879
2023-10-02T09:03:49,2420,42.8014,5.9826,13.2967,4.59909,2453.807,38.4881
2023-10-02T09:06:49,2420,42.8014,5.9826,13.2976,4.59914,2453.785,38.4876
2023-10-02T09:12:49,2420,42.8014,5.9826,13.2973,4.59915,2453.695,38.4881
2023-10-02T13:12:49,2420,42.8014,5.9826,13.2972,4.59907,2453.582,38.4875
2023-10-02T13:15:49,2420,42.8014,5.9826,13.2973,4.59908,2453.567,38.4875
2023-10-02T13:18:49,2420,42.8014,5.9826,13.2968,4.59910,2453.537,38.4882
2023-10-02T13:21:49,2420,42.8014,5.9826,13.2968,4.59908,2453.514,38.4879
2023-10-02T14:30:49,2420,42.8014,5.9826,13.2970,4.59908,2453.446,38.4879
2023-10-02T14:33:49,2420,42.8014,5.9826,13.2972,4.59912,2453.424,38.4881
2023-10-02T14:36:49,2420,42.8014,5.9826,13.2978,4.59919,2453.409,38.4881
2023-10-02T14:39:49,2420,42.8014,5.9826,13.2973,4.59915,2453.424,38.4883
2023-10-02T14:42:49,2420,42.8014,5.9826,13.2975,4.59913,2453.424,38.4878
2023-10-02T14:45:49,2420,42.8014,5.9826,13.2972,4.59913,2453.401,38.4881
2023-10-02T14:48:49,2420,42.8014,5.9826,13.2975,4.59920,2453.424,38.4885
2023-10-02T14:51:49,2420,42.8014,5.9826,13.2974,4.59917,2453.424,38.4883
2023-10-02T14:54:49,2420,42.8014,5.9826,13.2978,4.59920,2453.424,38.4881
2023-10-02T14:57:49,2420,42.8014,5.9826,13.2975,4.59915,2453.401,38.4881
2023-10-02T15:00:49,2420,42.8014,5.9826,13.2978,4.59920,2453.409,38.4881
